Regional Weather Roundup
Issued by NWS

Home | Current Version | Previous Version | Text Only | Print | Product List | Glossary On
Versions: 1 2 3 4 5 6 7 8 9 10 11 12 13 14 15 16 17 18 19 20 21 22 23 24 25 26 27 28 29 30 31 32 33 34 35 36 37 38 39 40 41 42 43 44 45 46 47 48 49 50
000
ASUS45 KABQ 242010
RWRNM
WEATHER ROUNDUP FOR NEW MEXICO
NATIONAL WEATHER SERVICE ALBUQUERQUE NM
200 PM MDT THU APR 24 2014

NOTE: "FAIR" MEANS FEW OR NO CLOUDS BELOW 12,000 FEET AGL WITH NO
       SIGNIFICANT WEATHER OR OBSTRUCTIONS TO VISION.

      THIS PRODUCT IS RELEASED AS TWO VERSIONS.  ONE VERSION NEAR
      THE TOP OF THE HOUR CONTAINING PRELIMINARY DATA FROM ALBUQUERQUE
      AND OTHER STATIONS.  A FINAL VERSION WITH ADDITIONAL DATA IS
      ISSUED ABOUT 10 MINUTES AFTER THE HOUR.

NMZ501-503-504-510>518-242100-
NORTHWEST PLATEAU/NORTHCENTRAL MOUNTAINS

CITY           SKY/WX    TMP DP  RH WIND       PRES   REMARKS
FARMINGTON     SUNNY     62  -2   7 MISG      30.09F
LOS ALAMOS     PTSUNNY   55   6  13 CALM      30.14F
SANTA FE       PTSUNNY   64   2   8 W18G25    30.10F
TAOS           MOSUNNY   57   7  13 S9G18     30.13F
ANGEL FIRE     FAIR      55  10  16 W16G26    30.13F

$$
NMZ402-403-502-505>509-242100-
WESTCENTRAL MOUNTAINS/SOUTHWEST MOUNTAINS

CITY           SKY/WX    TMP DP  RH WIND       PRES   REMARKS
GALLUP         MOSUNNY   64   9  11 S12       30.12F
GRANTS         MOSUNNY   64   8  11 NE6       30.14F
SILVER CITY    SUNNY     72  10   9 SW8       30.11F

$$
NMZ407-409-411-412-242100-
SOUTHERN DESERTS

CITY           SKY/WX    TMP DP  RH WIND       PRES   REMARKS
LORDSBURG      FAIR      77  16  10 SW10G21   30.04F
DEMING         SUNNY     76  11   8 VRB3      30.05F
LAS CRUCES     SUNNY     76  10   8 S6        30.07F
HOLLOMAN AFB   SUNNY     75   4   6 N8        30.04F
ALAMOGORDO     SUNNY     73   5   7 N5        30.05F
T OR C         SUNNY     71   8   8 S12       30.06F

$$
NMZ519>523-242100-
CENTRAL VALLEYS/CENTRAL HIGHLANDS

CITY           SKY/WX    TMP DP  RH WIND       PRES   REMARKS
ALBUQUERQUE    PTSUNNY   64  10  12 SW10      30.11F
DOUBLE EAGLE   PTSUNNY   63  12  14 S7        30.12F
MORIARTY ARPT  FAIR      64   5  10 W18       30.12F
CLINES CORNERS PTSUNNY   64   8  11 W18G24    30.11F
BELEN          FAIR      66  15  14 NE7       30.09F
SOCORRO        FAIR      68  12  11 CALM      30.08F

$$
NMZ524>526-539-540-242100-
SOUTHCENTRAL MOUNTAINS

CITY           SKY/WX    TMP DP  RH WIND       PRES   REMARKS
RUIDOSO        MOSUNNY   64   5   9 NW8G21    30.16F

$$
NMZ527>531-242100-
NORTHEAST HIGHLANDS/NORTHEAST PLAINS

CITY           SKY/WX    TMP DP  RH WIND       PRES   REMARKS
LAS VEGAS      PTSUNNY   66   5   9 SW17G30   30.03F
RATON          MOSUNNY   66  21  18 SW17G26   30.00F
CLAYTON        SUNNY     63  17  17 SW9       30.02F

$$
NMZ532>537-242100-
EASTCENTRAL PLAINS

CITY           SKY/WX    TMP DP  RH WIND       PRES   REMARKS
TUCUMCARI      SUNNY     68  21  16 CALM      30.01F
CANNON AFB     SUNNY     67  24  19 NW10      30.05F
CLOVIS AIRPORT SUNNY     68  25  19 N8        30.07F

$$
NMZ028-029-538-242100-
SOUTHEAST PLAINS

CITY           SKY/WX    TMP DP  RH WIND       PRES   REMARKS
ROSWELL        MOSUNNY   72  28  19 VRB3      30.04F
ARTESIA        SUNNY     72  25  17 E7        30.04F
CARLSBAD       SUNNY     77  20  12 MISG      30.02F
HOBBS          SUNNY     72  27  18 NW10G16   30.05F


$$



USA.gov is the U.S. government's official web portal to all federal, state and local government web resources and services.